Showing default

NOAA 4, 7529

Orbit data source: Space-Track

NOAA 4, 7529 is a payload satellite owned by NOAA (US) in SSO that was launched on Fri, 15 Nov 1974 UTC via a DELTA 2310 launch vehicle from the Air Force Western Test Range (AFWTR). Payload-class satellites include a variety of spacecraft equipped with specific instruments for various scientific and technological missions. These include communications satellites like Starlink; space stations such as the ISS; scientific satellites like the Hubble; Earth observation satellites from companies like Planet Labs, Umbra, and HawkEye 360; GPS; miniature CubeSats for education and research; and military/defense satellites.

Loading next visibility...
Identifier
7529, 1974-089A
Orbit
SSO
Country
Flag of USUS
Related business
Manufacturer
RCA/East Windsor
Mission
Non-operational spacecraft
Bus & Motor
TIROS M, Unknown motor
Mass
345 kg wet, 345 kg dry
Launch date (UTC)
1974-11-15 (51 years ago)
Launch vehicle
DELTA 2310
Launch site
Air Force Western Test Range (AFWTR)
Object type
Payload
Rocket body
Debris
Shape & HBR
Unknown
Radar Cross Section
Large (>1 m²)

Expand to show TLE details & history
Last TLE update: 11 hours ago

TLE from 11 hours ago
0 NOAA 4
1 07529U 74089A   26073.25562589 -.00000015  00000-0  19819-3 0  9999
2 07529 102.0070  85.0358 0009059  20.2411 353.2243 12.53201779347639
Epoch: 2026-03-14T06:08Z
TLE epoch observation values (Epoch: 2026-03-14T06:08:06.076Z)
Latitude
13.12259°
Longitude
178.30307°
Altitude
1,445.916 km
Speed
7.143 km/s
True Right ascension
05h 28m 49s
True Declination
13° 03' 12"
Sunlit
Object was in daylight at epoch
Visualization orbit readout
Latitude
Unknown
Longitude
Unknown
Altitude
Unknown
Speed
Unknown
Apparent Right ascension
Unknown
Apparent Declination
Unknown
Sunlit
N/A
Visualization observer readout
Local Sidereal Time
21:48:32
Azimuth
Unknown
Elevation
Unknown
Doppler factor
Unknown
Orbital elements
Apogee altitude
1,455.779 km
Perigee altitude
1,441.599 km
Semi-major axis
7,826.826 km
Eccentricity
0.00091
Inclination
102.007°
RAAN
85.0358°
Arg. of periapsis
20.2411°
True anomaly
353.21204°
Mean anomaly
353.2243°
Eccentric anomaly
353.21817°
Mean motion
3.13447 °/min
Orbital period
114.85 mins
BSTAR
0.00019819
Loading maneuver chart data...
Computing Atmospheric mass density...

Documentation

Showing up to 5 results
|